TimePDT,TemperatureF,Dew PointF,Humidity,Sea Level PressureIn,VisibilityMPH,Wind Direction,Wind SpeedMPH,Gust SpeedMPH,PrecipitationIn,Events,Conditions,WindDirDegrees,DateUTC
12:56 AM,64.0,21.9,20,30.02,10.0,Calm,Calm,-,N/A,,Clear,0,2013-07-18 07:56:00
1:56 AM,62.1,27.0,26,30.02,10.0,West,4.6,-,N/A,,Clear,280,2013-07-18 08:56:00
2:56 AM,57.9,25.0,28,30.02,10.0,SSE,5.8,-,N/A,,Clear,160,2013-07-18 09:56:00
3:56 AM,57.9,23.0,26,30.02,10.0,Calm,Calm,-,N/A,,Clear,0,2013-07-18 10:56:00
4:56 AM,57.9,21.9,25,30.02,10.0,South,3.5,-,N/A,,Clear,180,2013-07-18 11:56:00
5:56 AM,55.9,17.1,22,30.04,10.0,SE,8.1,-,N/A,,Clear,140,2013-07-18 12:56:00
6:18 AM,57.2,17.6,21,30.14,10.0,SE,6.9,-,N/A,,Clear,140,2013-07-18 13:18:00
6:56 AM,64.9,17.1,16,30.04,10.0,SE,4.6,-,N/A,,Clear,140,2013-07-18 13:56:00
7:56 AM,72.0,21.9,15,30.05,10.0,South,5.8,-,N/A,,Clear,170,2013-07-18 14:56:00
8:56 AM,79.0,30.0,17,30.06,10.0,West,4.6,-,N/A,,Clear,270,2013-07-18 15:56:00
9:56 AM,84.0,30.9,15,30.05,10.0,WNW,5.8,-,N/A,,Clear,290,2013-07-18 16:56:00
10:56 AM,87.1,17.1,8,30.04,10.0,WNW,5.8,-,N/A,,Clear,300,2013-07-18 17:56:00
11:56 AM,91.0,14.0,6,30.03,10.0,Variable,4.6,-,N/A,,Clear,0,2013-07-18 18:56:00
12:56 PM,95.0,14.0,5,30.01,10.0,Variable,3.5,-,N/A,,Clear,0,2013-07-18 19:56:00
1:56 PM,96.1,16.0,5,29.99,10.0,West,6.9,-,N/A,,Partly Cloudy,270,2013-07-18 20:56:00
2:56 PM,97.0,19.0,6,29.96,10.0,Variable,5.8,-,N/A,,Partly Cloudy,0,2013-07-18 21:56:00
3:56 PM,98.1,18.0,6,29.94,10.0,Variable,6.9,-,N/A,,Clear,0,2013-07-18 22:56:00
4:56 PM,99.0,12.0,4,29.92,10.0,WNW,4.6,-,N/A,,Clear,300,2013-07-18 23:56:00
5:56 PM,98.1,10.0,4,29.91,10.0,WNW,3.5,-,N/A,,Clear,290,2013-07-19 00:56:00
6:56 PM,100.4,10.4,4,29.90,10.0,NNE,4.6,-,N/A,,Scattered Clouds,20,2013-07-19 01:56:00
7:56 PM,95.0,14.0,5,29.90,10.0,NNE,3.5,-,N/A,,Partly Cloudy,20,2013-07-19 02:56:00
8:56 PM,82.9,18.0,9,29.91,10.0,North,3.5,-,N/A,,Scattered Clouds,360,2013-07-19 03:56:00
9:56 PM,80.1,28.0,15,29.92,10.0,NW,5.8,-,N/A,,Clear,310,2013-07-19 04:56:00
10:56 PM,75.9,27.0,16,29.92,10.0,Calm,Calm,-,N/A,,Clear,0,2013-07-19 05:56:00
11:56 PM,71.1,35.1,27,29.94,10.0,SSW,8.1,-,N/A,,Clear,210,2013-07-19 06:56:00